Terminal Aerodrome Forecast
Issued by NWS Springfield, MO

Home | Current Version | Previous Version | Text Only | Print | Product List | Glossary On
Versions: 1 2 3 4 5 6 7 8 9 10 11 12 13
000
FTUS43 KSGF 291700
TAFSGF
TAF
KSGF 291720Z 2918/3018 26004KT P6SM SCT025
     FM292000 35009KT P6SM VCSH SCT030 BKN040
     FM300300 02006KT P6SM FEW200=

USA.gov is the U.S. government's official web portal to all federal, state and local government web resources and services.